Presure
252 260 236 237 221 222 226 140 162 165 122 149 139 126 229 123 135 134 134 130 128 151 222 215 208 142 192 142 198 211 205 204 200 200 202 191 189 195 195 199 205 230 214 228
254 255 247 234 224 221 231 225 225 232 221 213 202 236 230 156 150 132 141 187 222 218 190 222 217 213 220 216 209 206 202 201 193 192 195 206 215 245 233 224 232 226 215 205
247 257 243 226 228 231 228 223 231 221 138 131 134 151 134 134 221 220 178 142 197 213 184 209 210 209 199 196 196 193 194 197 202 203 214 230 218 228 229 218 209 201 193 193
266 263 250 229 229 229 228 153 228 225 227 229 222 222 219 224 232 231 222 224 219 219 221 213 210 211 212 213 214 215 210 212 232 221 220 229 223 214 204 196 195 194 217 211
253 255 241 232 219 227 223 225 234 220 221 219 216 226 225 219 218 218 218 218 215 211 210 212 217 216 216 222 234 221 211 216 219 232 220 208 201 196 196 195 214 203 204 204
247 244 238 228 230 216 234 218 214 193 220 217 224 221 211 215 216 218 217 236 230 228 219 220 219 218 211 216 222 243 231 221 213 202 199 198 202 201 211 211 202 199 195 194
234 245 241 238 224 236 220 220 212 213 214 215 215 214 222 214 217 223 214 223 210 206 211 208 206 218 245 229 218 215 206 198 201 198 206 197 218 214 205 206 201 208 202 199
230 224 216 218 222 223 215 216 212 213 218 213 217 223 222 206 216 198 196 190 214 210 219 216 221 216 216 204 210 192 197 200 204 194 202 215 214 208 209 201 200 200 197 197
227 221 224 222 222 222 220 218 215 212 217 219 220 209 206 208 209 203 208 205 216 218 212 219 212 212 202 205 188 199 200 195 198 203 214 211 212 218 204 202 200 195 192 192
212 178 222 225 225 221 222 222 221 221 218 208 213 212 207 210 211 210 215 221 216 211 219 209 207 198 199 190 196 196 198 200 208 214 199 198 199 202 201 193 194 189 191 190
220 220 224 218 228 212 220 210 211 208 206 207 204 204 204 209 212 219 212 214 218 216 210 207 200 198 189 202 196 193 205 212 208 194 202 203 209 198 192 191 187 184 194 196
210 208 211 214 205 210 212 212 210 204 205 203 211 211 208 211 213 213 204 222 218 213 203 200 195 195 202 194 193 191 202 196 212 197 201 201 189 193 195 186 182 191 196 199
212 203 210 210 208 216 203 207 207 206 206 208 213 220 209 207 210 206 225 217 209 203 200 195 191 196 193 193 189 189 189 203 201 201 202 196 193 192 193 190 193 191 194 197
216 211 208 208 207 204 204 205 209 208 218 219 216 216 210 216 216 221 216 207 202 204 191 190 194 193 186 190 189 192 194 200 202 205 207 196 190 192 193 192 194 193 208 213
214 216 207 232 204 207 206 204 210 221 214 209 214 206 212 239 225 214 202 198 204 200 196 203 193 192 194 194 196 200 200 203 211 210 200 190 191 192 194 187 194 212 217 225
241 215 216 203 204 205 205 222 218 211 211 206 215 239 239 220 207 200 198 200 196 193 192 190 192 192 193 200 201 202 209 213 203 192 187 185 196 194 193 205 207 216 220 239
239 215 200 215 212 207 214 216 205 210 210 206 246 221 213 201 200 197 194 197 198 198 197 198 201 203 205 210 213 213 210 185 190 182 193 199 197 195 205 205 216 217 230 214
208 214 210 211 209 208 213 201 206 209 210 231 216 212 205 199 197 192 190 191 194 197 199 202 205 206 212 204 194 196 202 207 197 194 202 200 198 204 205 218 218 239 216 217
205 211 205 212 213 211 206 199 207 190 203 196 204 199 194 195 188 198 200 202 202 201 206 205 207 198 194 197 206 188 186 204 203 194 202 200 204 204 214 214 245 216 216 228
209 208 211 213 211 207 198 198 209 200 205 199 194 188 97 197 196 200 201 202 207 195 183 189 188 199 186 193 196 201 202 199 198 203 205 205 211 217 230 234 211 220 230 247
208 205 214 208 209 205 200 201 201 199 202 200 198 197 199 201 203 201 203 205 187 188 192 193 189 199 206 188 194 198 202 202 199 207 203 216 218 243 219 211 228 243 251 259
206 204 213 203 203 203 201 201 197 198 199 199 197 199 200 202 206 208 205 181 195 200 199 191 200 193 186 194 194 200 200 203 202 211 217 234 237 208 219 236 247 253 256 268
212 203 212 214 179 196 197 202 190 198 203 201 202 200 204 201 201 199 192 197 195 194 191 199 194 191 194 195 200 202 203 212 216 232 248 214 217 228 240 251 254 270 269 269
207 206 209 213 208 204 199 202 193 196 199 200 200 203 197 192 194 191 196 194 186 193 194 181 199 194 191 204 199 211 211 219 247 212 215 230 242 249 252 254 272 251 267 267
204 199 211 215 104 204 201 200 202 199 198 197 202 201 198 195 197 190 195 193 193 197 188 197 187 204 200 208 210 213 234 233 212 226 233 241 256 253 266 277 257 278 265 279
211 216 214 211 209 207 206 203 203 204 202 197 196 197 201 194 191 195 195 198 197 201 194 194 201 205 208 214 218 240 210 221 231 233 247 257 257 268 273 267 277 276 278 392
Wind_Speed
14 28 29 36 32 31 27 35 29 31 38 53 35 41 25 45 39 41 43 46 48 64 33 33 38 57 41 65 48 43 50 51 54 57 59 66 69 71 74 76 81 71 72 68
20 26 35 39 33 27 25 19 21 23 22 21 26 28 28 38 40 43 47 40 29 32 39 34 34 38 35 35 39 44 52 55 59 62 64 67 72 62 61 64 61 60 63 69
19 27 34 32 31 29 27 24 25 24 40 41 40 36 41 43 27 29 40 50 36 35 40 36 36 38 46 47 47 53 56 59 60 63 67 59 59 57 54 56 61 65 70 74
22 30 33 33 30 24 23 37 23 20 17 25 24 22 24 26 28 32 33 35 33 36 36 37 40 38 46 50 54 58 62 64 56 58 55 51 52 54 58 62 66 70 59 63
20 26 27 32 21 22 21 22 21 21 23 23 25 24 20 21 27 29 29 29 30 32 35 39 45 43 49 51 44 47 50 52 49 46 49 51 56 58 63 65 55 65 63 65
18 21 29 26 24 19 22 23 21 20 21 25 26 21 20 25 28 28 31 29 29 32 35 37 39 35 37 41 40 34 38 44 45 51 54 56 59 60 58 54 59 64 69 71
11 21 23 29 20 20 25 23 22 24 26 23 19 20 19 26 32 28 32 28 30 30 29 35 38 36 28 32 36 38 42 50 52 52 57 59 54 54 58 57 62 63 68 73
13 14 18 19 20 27 27 26 25 25 23 19 25 27 24 29 29 30 36 37 30 29 28 29 30 34 33 39 39 43 46 50 55 58 58 56 55 57 56 61 65 67 73 78
16 22 22 22 24 28 30 27 25 26 28 27 30 21 26 30 30 34 34 33 32 33 31 28 31 33 38 40 44 46 46 52 57 59 57 56 58 59 61 64 68 73 78 82
16 24 22 23 28 29 25 24 28 28 28 28 24 23 31 33 29 32 32 30 31 32 28 31 32 36 40 45 48 50 48 52 55 54 59 61 62 63 64 69 73 79 83 86
20 24 23 13 23 22 24 23 25 25 27 31 25 30 34 35 31 32 32 31 31 29 32 33 36 39 43 45 49 51 51 53 55 61 62 61 61 64 68 74 78 82 87 91
20 20 22 21 27 26 24 25 25 29 30 34 31 28 36 34 34 30 33 31 32 31 35 36 38 42 43 47 52 56 55 57 56 62 63 61 68 69 72 78 81 86 92 94
22 30 28 25 28 24 24 27 30 32 33 35 33 32 36 33 34 34 30 33 35 37 37 39 42 45 48 50 54 56 60 62 61 61 62 64 69 74 77 82 86 89 94 97
29 29 28 29 28 23 29 29 31 34 33 36 32 33 34 34 29 31 37 35 37 38 42 43 44 46 50 53 57 62 65 65 66 68 67 69 75 79 83 87 91 93 98 101
32 31 30 31 31 30 32 32 33 33 33 35 30 34 31 31 31 35 40 42 39 39 46 42 46 53 53 55 59 62 64 67 70 68 68 74 79 83 87 88 95 98 101 104
33 34 32 33 32 31 36 34 33 31 32 33 32 31 33 28 33 40 43 40 44 48 50 54 53 56 61 63 63 66 70 71 66 71 76 81 84 88 90 95 98 102 104 109
32 33 34 36 34 34 36 30 31 32 31 31 31 31 33 35 33 38 43 46 46 47 52 55 57 58 62 65 67 67 69 70 73 77 83 85 89 92 95 99 105 105 108 106
37 33 35 37 33 36 33 33 32 29 31 31 35 35 35 38 37 38 44 49 50 52 57 59 61 63 65 63 66 68 70 70 76 81 84 89 93 97 101 107 106 111 108 111
38 37 36 36 35 36 32 34 32 28 31 36 39 38 39 44 40 44 46 48 49 52 55 57 60 62 63 66 68 72 76 77 79 83 87 91 96 99 104 105 109 109 112 118
40 39 35 37 35 35 35 36 33 31 33 42 41 41 24 45 48 48 48 49 51 52 58 60 62 63 65 68 72 76 80 82 86 91 96 99 104 107 111 109 108 113 118 122
38 41 37 37 36 37 39 38 35 34 36 43 43 46 48 50 50 49 51 51 53 57 61 63 65 70 72 75 80 85 88 90 92 98 100 106 110 110 109 109 117 122 124 125
40 41 40 39 37 39 40 40 37 41 43 43 44 48 51 52 52 51 51 59 59 59 62 65 69 70 74 80 84 88 91 95 98 104 108 111 108 106 113 119 124 126 125 126
41 43 42 41 38 40 39 41 46 47 45 47 49 51 53 52 53 55 54 56 60 65 68 73 74 77 82 84 87 90 94 101 105 109 105 106 110 115 121 123 124 124 123 120
43 44 45 44 45 43 44 45 49 50 48 49 51 55 55 56 56 58 60 61 62 69 72 72 82 83 83 91 91 99 101 107 107 103 107 112 120 122 121 122 125 113 119 119
44 41 48 47 19 46 47 50 53 54 51 52 57 58 59 60 60 62 66 68 71 73 73 79 76 89 90 96 99 103 108 104 103 109 114 121 123 120 123 124 115 125 116 130
47 50 50 52 48 47 50 53 55 56 56 58 59 60 64 61 62 66 70 74 76 79 78 80 86 93 97 101 103 106 100 107 112 114 123 123 121 122 122 119 126 129 128 83
Wind_Direction
216 196 195 196 207 212 221 243 242 232 246 255 255 249 208 257 259 258 259 262 265 272 243 228 241 278 259 285 269 258 261 262 263 267 273 270 272 273 275 278 279 279 280 284
213 193 201 197 204 219 214 213 233 220 216 225 225 206 206 249 259 262 269 257 230 237 253 246 245 256 254 258 262 269 268 269 267 270 273 275 275 280 278 279 284 285 287 289
245 202 199 209 211 215 209 213 214 219 245 247 246 248 253 255 229 229 252 268 246 241 260 250 252 258 258 257 260 262 267 270 273 274 276 278 279 281 282 282 285 289 289 291
232 212 203 204 216 210 213 236 220 217 224 227 233 231 227 232 227 224 227 235 238 243 244 245 249 249 259 261 262 264 263 268 277 276 279 278 278 282 287 289 289 290 290 288
229 217 210 207 214 218 218 217 221 216 216 228 235 237 236 239 237 238 241 241 248 252 256 258 259 257 259 267 270 270 272 275 277 276 279 284 287 289 289 290 288 289 295 297
243 224 212 221 216 209 233 217 213 227 219 230 235 237 234 249 252 255 256 256 250 252 261 263 265 265 266 269 268 270 276 278 280 284 287 288 287 287 283 285 286 286 288 289
253 227 224 218 222 223 224 226 221 225 229 242 251 249 256 246 253 259 266 264 247 252 256 265 273 274 271 269 274 277 283 286 287 287 285 289 285 285 286 285 286 290 291 292
253 234 240 226 215 219 235 233 237 244 249 262 266 255 262 254 260 262 268 272 271 269 270 268 274 278 281 285 284 288 291 288 286 290 289 289 292 290 289 291 294 296 296 298
242 234 241 237 231 227 239 242 244 249 253 248 254 253 243 250 255 261 272 279 280 276 278 281 283 284 285 286 289 288 287 288 288 290 293 294 296 293 295 298 299 300 300 303
230 252 244 242 234 240 248 247 252 254 258 256 255 262 264 258 264 269 268 266 272 278 278 281 282 286 286 291 290 292 292 291 293 292 293 297 299 299 302 302 301 301 302 302
236 243 248 245 251 254 260 242 250 254 257 263 259 264 263 277 282 279 281 279 276 276 278 278 283 286 290 286 288 290 294 297 297 298 298 303 300 299 299 298 299 302 302 303
236 250 249 230 243 248 255 261 254 253 258 263 266 267 272 276 277 280 280 271 270 271 276 280 284 286 287 290 294 295 301 299 298 298 299 299 297 297 295 297 302 302 303 305
233 243 249 248 247 252 258 259 261 263 264 263 271 270 273 277 275 277 268 267 273 277 282 287 292 291 293 294 293 294 296 299 297 298 300 295 296 296 298 301 302 304 306 308
239 244 251 257 260 259 258 260 266 266 265 270 271 278 273 274 274 267 269 271 277 280 287 289 290 290 291 292 293 297 300 301 302 305 306 298 299 301 301 303 303 306 306 307
250 249 246 260 254 257 261 265 263 263 269 275 278 280 277 263 269 267 274 283 289 285 282 284 285 287 291 294 297 299 300 302 305 304 299 300 300 300 300 305 304 306 308 310
240 248 252 257 261 261 265 263 269 272 275 281 279 262 263 270 273 275 287 296 292 292 295 296 296 296 298 299 301 303 304 306 304 301 302 302 299 300 303 305 306 310 311 313
242 247 254 255 258 263 264 270 270 275 283 284 261 268 268 277 280 285 291 288 285 289 290 293 296 297 300 303 304 305 304 302 301 302 300 300 301 303 307 308 310 310 311 312
248 248 252 258 261 263 267 267 273 280 280 267 271 272 277 280 282 279 281 284 291 295 298 301 301 303 304 304 303 302 301 302 299 299 301 303 305 308 309 310 310 311 312 312
250 250 253 257 258 262 264 269 276 271 277 274 272 278 280 282 287 285 286 289 293 295 297 299 302 300 302 304 303 302 302 303 302 302 303 305 307 308 309 310 311 312 312 312
244 254 253 258 259 264 265 269 274 276 273 271 279 282 320 283 286 287 288 292 294 293 294 295 297 299 297 298 299 303 304 304 305 308 308 309 309 310 311 311 311 311 312 314
247 254 254 256 260 264 267 271 275 275 270 273 279 282 284 284 286 288 291 292 290 295 298 298 299 303 308 304 306 307 308 308 309 309 310 310 311 311 310 310 311 313 314 314
248 253 254 257 260 261 264 274 273 273 273 278 281 281 282 285 288 290 289 292 296 298 299 299 303 303 304 305 305 306 308 309 309 309 309 309 310 308 310 312 314 314 314 314
246 254 256 257 266 264 268 268 274 275 277 278 280 280 282 285 287 291 293 295 299 302 303 306 305 304 304 304 305 307 308 309 309 309 310 309 309 311 313 313 313 313 313 315
250 254 258 258 261 264 267 269 271 277 280 282 282 282 284 287 291 294 297 299 300 302 303 304 304 303 306 306 308 309 309 309 309 309 309 311 313 312 313 312 312 312 315 316
253 261 259 260 278 265 268 270 272 276 281 284 284 286 288 291 294 298 299 300 300 300 302 301 303 304 306 307 308 308 308 309 309 310 312 313 312 313 313 313 313 314 315 316
256 258 261 264 264 264 266 270 274 279 283 284 286 287 289 292 295 297 297 298 299 301 302 302 305 306 307 306 307 308 307 309 311 313 313 313 313 314 314 315 316 315 314 310